Retour au catalogue

THOR ABLESTAR DEB

ActifLEO
NORAD 134·DEBRIS·🇺🇸 United States

Lancé Jun 29, 1961 depuis Cape Canaveral Space Force Station

Loading…

Prochains Passages (prochaines 24 heures)

TLE

FraisSource: Space-Track

Époque: Sep 7, 2026, 06:53 UTC

1 00134U 61015U   26250.28695120  .00000019  00000-0  66313-4 0  9992
2 00134  66.8794 204.6069 0076745 136.0316 224.6908 13.97785042317172

Suivez THOR ABLESTAR DEB en temps réel avec AllMySat

Download on the App Store